Location: ??????
(55.4160°N, 38.1616°E)
Time: 08:41:07
(UTC+00:00)

Daily predictions for brighter satellites

Satellite Brightness Start Highest point End
(mag) Time Altitude Azimuth Time Altitude Azimuth Time Altitude Azimuth
NOSS 3-2 (C) 4.1 13:34:03 10° S 13:38:40 34° ESE 13:44:06 10° ENE
Cosmos 2297 Rocket 2.6 13:34:15 10° NW 13:39:55 71° WSW 13:45:33 10° SSE
Cosmos 2034 Rocket 4.4 13:34:39 10° SSW 13:41:00 74° WNW 13:47:25 10° N
Cosmos 2266 Rocket 4.2 13:35:17 10° N 13:41:15 48° ENE 13:47:05 10° SE
ACS3 Solar Sail 4.3 13:38:51 10° WSW 13:41:25 13° WNW 13:44:02 10° NW
Cosmos 1626 Rocket 3.5 13:37:28 10° N 13:41:49 84° ENE 13:46:07 10° SSE
Meteor 1-20 Rocket 4.3 13:36:26 10° N 13:41:49 54° ENE 13:47:10 10° SSE
Cosmos 1356 Rocket 3.4 13:39:36 10° SSW 13:43:41 86° WNW 13:47:49 10° NNE
Cosmos 2228 3.0 13:40:17 10° S 13:44:32 78° E 13:48:47 10° NNE
SJ 16-02 3.7 13:46:13 10° NW 13:47:19 11° NNW 13:48:23 10° NNW
Cosmos 2084 4.0 13:44:11 10° W 13:48:13 46° NNW 13:52:13 10° NE
Cosmos 44 Rocket 4.2 13:45:08 10° NW 13:49:44 33° NNE 13:54:24 10° E
Iridium 51 3.7 13:47:19 10° S 13:50:29 78° E 13:53:44 10° N
JB-3 4.3 13:49:19 10° NNE 13:52:55 55° E 13:56:30 10° S
Cosmos 1315 Rocket 3.2 13:50:15 10° SSW 13:54:03 63° WNW 13:57:52 10° N
IGS 5A 3.4 13:50:37 10° SSE 13:54:29 54° ENE 13:58:24 10° N
CZ-4C R/B 3.5 13:49:14 10° NW 13:55:50 64° SW 14:04:06 10° SSE
Cosmos 1461 3.4 13:52:36 10° SSW 13:56:17 41° SE 13:59:53 11° ENE
Cosmos 2151 2.9 13:52:28 10° N 13:56:38 65° ENE 14:00:47 10° SSE
Cosmos 1867 4.2 13:52:37 10° NW 13:58:00 62° SW 14:03:22 10° SSE
ARIANE 5 R/B 2.9 13:54:10 10° SE 13:58:54 40° ENE 14:03:43 10° N
Cosmos 1844 Rocket 3.7 13:55:53 10° NNW 14:00:36 26° NNE 14:05:18 10° E
USA 290 4.2 13:58:16 10° NW 14:01:17 35° WSW 14:04:17 10° S
CORIOLIS 4.2 13:58:51 10° SE 14:04:02 57° ENE 14:09:18 10° N
Cosmos 1544 Rocket 3.6 13:59:44 10° S 14:04:08 72° E 14:08:35 10° NNE
Cosmos 2219 3.5 13:58:49 10° NNW 14:04:24 48° NE 14:09:57 10° ESE
CENTAUR R/B 3.0 14:00:05 10° WSW 14:06:12 65° NNW 14:13:39 11° NE
Cosmos 1980 Rocket 3.6 14:03:06 10° SE 14:07:05 20° E 14:10:31 12° ENE
Cosmos 2263 Rocket 2.2 14:04:17 10° NNW 14:09:56 66° NE 14:15:36 10° SE
IRS-1C 4.3 14:06:29 10° SE 14:11:36 50° ENE 14:16:44 10° N
Meteor 1-28 Rocket 3.3 14:12:43 10° NNE 14:15:56 41° E 14:19:06 10° S
CBERS-1 4.1 14:12:34 10° SSE 14:17:41 84° WSW 14:22:50 10° NNW
Cosmos 1943 Rocket 4.0 14:15:24 10° NW 14:18:45 16° N 14:22:04 10° NE
Meteor 1-5 Rocket 4.2 14:14:08 10° N 14:19:24 55° ENE 14:24:47 10° SSE
NOSS 2-2 (D) 2.7 14:18:10 10° WSW 14:21:16 73° NW 14:23:27 17° NE
Cosmos 1602 Rocket 3.8 14:17:12 10° NNW 14:21:36 74° W 14:25:55 10° S
CZ-2D R/B 3.1 14:21:42 10° SE 14:24:39 39° ENE 14:27:38 10° N
Cosmos 1782 2.8 14:22:02 10° SSW 14:25:37 68° WNW 14:29:12 10° N
SPOT 1/Viking Rocket 4.1 14:21:14 10° SE 14:25:56 36° ENE 14:30:38 10° N
SAR-Lupe-4 3.7 14:23:37 10° SE 14:27:03 48° ENE 14:30:30 10° N
AQUARIUS 4.3 14:23:02 10° SE 14:27:15 46° ENE 14:31:30 10° N
Cosmos 1538 Rocket 4.0 14:22:09 10° NNW 14:27:27 69° ENE 14:32:45 10° SE
NOSS 2-3 (E) 4.4 14:24:33 10° S 14:27:36 25° ESE 14:29:28 17° E
YAOGAN 1 3.6 14:24:34 10° ESE 14:27:56 23° ENE 14:31:18 10° N
Meteor 1-25 Rocket 4.3 14:24:18 10° NNW 14:30:09 89° ENE 14:35:56 10° SSE
Cosmos 2227 Rocket 2.7 14:26:06 10° NW 14:31:42 65° WSW 14:37:17 10° SSE
Okean 1-7 Rocket 3.7 14:29:12 10° NNW 14:33:37 80° W 14:37:58 10° S
SL-16 R/B 2.5 14:28:44 10° NNE 14:35:01 82° ESE 14:41:14 10° SSW
Cosmos 2369 Rocket 3.8 14:32:46 10° WNW 14:37:17 24° NNW 14:41:51 10° NNE
Cosmos 1933 3.2 14:34:24 10° S 14:38:09 58° E 14:41:44 11° NNE
Cosmos 1743 4.3 14:36:32 10° NNW 14:39:28 31° W 14:42:21 10° SSW
Cosmos 1503 Rocket 3.9 14:34:31 10° SSW 14:39:45 82° ESE 14:44:30 13° NNE
USA 238 DEB 4.3 14:34:43 10° S 14:40:10 34° ESE 14:44:05 19° ENE
MOS 1 Rocket 3.5 14:35:15 10° SSE 14:40:15 61° ENE 14:45:29 10° N
USA 238 4.3 14:34:50 10° S 14:40:18 34° ESE 14:44:11 19° ENE
SAR-Lupe-1 4.1 14:36:57 10° SSE 14:40:29 58° ENE 14:44:04 10° N
SMAP 3.1 14:36:36 10° SSE 14:41:16 87° WSW 14:45:58 10° NNW
Lacrosse 4 Rocket 3.1 14:39:25 10° W 14:42:36 22° NNW 14:45:13 13° NNE
PSLV R/B 4.4 14:40:53 12° ESE 14:43:48 26° ENE 14:47:12 10° N
Landsat 7 3.7 14:40:26 10° SSE 14:45:05 83° ENE 14:49:47 10° NNW
USA 215 3.3 14:40:15 17° ENE 14:45:30 82° N 14:52:05 10° W
Cosmos 1697 Rocket 2.7 14:39:58 10° SSW 14:45:31 65° ESE 14:49:54 17° NE
Cosmos 1953 Rocket 3.5 14:42:16 10° N 14:46:44 67° ENE 14:51:10 10° SSE
Lacrosse 5 rocket 1.0 14:43:33 10° W 14:47:15 67° N 14:49:01 28° ENE
Thor Agena Rocket 4.0 14:43:31 10° S 14:48:40 66° WSW 14:53:47 10° NNW
NOSS 2-2 (E) 3.1 14:46:49 10° WSW 14:49:51 53° NNW 14:51:12 28° NNE
Cosmos 1656 4.2 14:45:21 10° SW 14:50:56 58° NW 14:55:57 13° NNE
Cosmos 2360 4.4 14:45:25 10° SW 14:51:08 71° NW 14:56:03 15° NNE
Cosmos 1354 Rocket 3.9 14:46:09 10° SSW 14:51:24 74° ESE 14:55:39 16° NNE
Cosmos 1777 Rocket 4.1 14:46:26 10° SSW 14:51:41 76° WNW 14:56:25 13° NNE
SJ-12 3.6 14:48:21 10° SSE 14:52:08 82° ENE 14:55:57 10° NNW
Cosmos 2278 Rocket 3.9 14:48:51 10° NW 14:52:28 17° N 14:54:34 14° NNE
BREEZE-M DEB (TANK) 4.4 14:50:16 10° WSW 14:53:20 42° S 15:01:50 10° ESE
Cosmos 1825 Rocket 3.8 14:49:36 10° NNW 14:53:56 69° W 14:58:13 10° S
Cosmos 1076 Rocket 3.4 14:51:32 10° N 14:55:52 86° E 15:00:12 10° SSE
Cosmos 1898 Rocket 4.2 14:53:14 10° SSE 14:57:44 31° ESE 14:59:22 26° ENE
NOSS 2-2 (C) 4.0 14:55:24 10° W 14:58:05 29° NNW 14:59:06 23° NNE
ERS-1 4.4 14:54:29 10° SSE 14:59:30 89° ENE 15:04:29 10° NNW
Cosmos 2112 Rocket 4.3 14:55:00 10° NNW 14:59:58 43° NE 15:04:01 15° ESE
Spot 4 Rocket 4.2 14:55:12 10° SE 15:00:04 47° ENE 15:04:59 10° N
IRS-P3 4.0 14:55:17 10° SSE 15:00:35 81° ENE 15:05:56 10° NNW
Cosmos 2098 Rocket 4.3 14:58:39 10° SW 15:03:10 48° WNW 15:08:21 10° N
Cosmos 1805 2.8 15:02:17 10° N 15:05:37 55° ENE 15:08:55 10° SSE
Cosmos 1655 Rocket 4.0 15:01:42 10° NNW 15:07:59 85° W 15:14:12 10° S
Cosmos 923 Rocket 3.9 15:03:36 10° NNW 15:08:49 69° ENE 15:13:59 10° SE
Radarsat Rocket 4.5 15:02:02 10° SE 15:09:39 60° ENE 15:16:24 10° NNW
Cosmos 1937 Rocket 4.2 15:07:19 10° SSE 15:11:48 31° ESE 15:12:17 30° E
Cosmos 990 Rocket 3.9 15:09:02 10° SSW 15:14:11 89° WNW 15:17:45 21° NNE
Cosmos 1844 3.9 15:09:22 10° NNW 15:14:49 48° NE 15:17:29 28° ESE
GEOS 3 Rocket 4.0 15:12:45 30° ENE 15:15:07 49° SE 15:20:20 10° SSW
Resurs 01 Rocket 3.2 15:18:08 20° NNE 15:18:08 20° NNE 15:19:51 10° N
Cosmos 494 Rocket 4.1 15:15:04 10° NNW 15:20:12 50° NE 15:22:41 28° ESE
Cosmos 2082 3.8 15:15:10 10° NW 15:20:55 79° WSW 15:26:38 10° SSE
Meteor 2-11 Rocket 4.5 15:14:54 10° N 15:21:00 56° ENE 15:27:01 10° SSE
Gbstr 26 Del rocket 3.4 15:18:20 10° SW 15:22:05 40° SSE 15:22:51 35° SE
SJ-7 4.1 15:23:14 42° SE 15:24:12 58° ENE 15:27:56 10° N
NOSS 3-2 (A) 3.9 15:19:46 10° W 15:25:12 52° NNW 15:28:38 27° NE
Cosmos 2058 Rocket 3.0 15:23:40 10° S 15:28:06 64° E 15:29:48 36° NNE
Cosmos 1048 Rocket 4.5 15:23:54 10° NNW 15:28:52 38° NE 15:29:08 38° ENE
NOSS 3-2 (C) 3.4 15:23:37 10° WSW 15:28:59 73° NNW 15:32:13 30° NE
CZ-4 R/B 4.3 15:25:42 10° SSE 15:29:39 81° WSW 15:33:38 10° NNW
IRAS Rocket 4.1 15:25:01 10° SSE 15:30:26 67° ENE 15:35:53 10° NNW
Cosmos 44 Rocket 3.3 15:26:42 10° NW 15:31:50 77° NE 15:34:02 35° ESE
Cosmos 1606 Rocket 4.4 15:27:59 10° SSW 15:32:18 51° WNW 15:36:36 10° N
Cosmos 2227 4.1 15:27:18 10° NNW 15:32:58 70° NE 15:36:18 25° SE
Cosmos 1461 3.5 15:29:16 10° WSW 15:33:02 44° NNW 15:34:00 36° N
Aureole 1 Rocket 3.5 15:29:00 10° SSW 15:33:55 73° ESE 15:37:03 29° NE
Meteor 2-9 Rocket 4.3 15:30:55 10° N 15:36:03 44° ENE 15:36:10 44° ENE
SL-16 R/B 3.9 15:32:26 10° SSE 15:34:05 16° SE 15:34:05 16° SE
ARIANE 5 R/B 3.8 15:33:07 10° S 15:37:57 42° W 15:42:52 10° NNW
Okean 1 4.1 15:35:45 10° S 15:37:57 34° SSE 15:37:57 34° SSE
Cosmos-2242 2.8 15:35:28 10° S 15:39:42 75° E 15:40:30 57° NNE
Cosmos 1680 Rocket 3.4 15:34:53 10° NNW 15:40:08 86° ENE 15:45:16 11° SSE
Cosmos 1844 Rocket 2.6 15:39:43 10° NNW 15:45:25 74° NE 15:47:51 35° SE
Resurs 1-3 3.5 15:42:45 10° SSE 15:47:04 86° WSW 15:51:25 10° NNW
Cosmos 2219 4.3 15:43:07 10° NW 15:48:34 46° WSW 15:54:01 10° S
Nadezhda 2 Rocket 4.4 15:43:04 10° NNW 15:49:13 83° W 15:55:19 10° S
NOAA 6 3.8 15:44:08 10° SSE 15:49:13 77° ENE 15:54:21 10° NNW
Cosmos 1980 Rocket 2.1 15:44:39 10° SSW 15:50:19 86° ESE 15:52:17 43° NE
USA 281 4.0 15:50:37 32° NE 15:50:46 32° NE 15:56:23 10° NNW
Cosmos 2263 Rocket 4.0 15:48:36 10° NW 15:53:31 31° WSW 15:58:26 10° SSW
OceanSat 1 rocket 4.5 15:49:57 10° SSE 15:54:42 89° ENE 15:59:26 10° NNW
Meteor 2-2 Rocket 4.1 15:51:22 10° S 15:57:00 86° ESE 16:00:12 27° NNE
Cosmos 1553 Rocket 3.8 15:51:36 10° S 15:57:47 77° E 16:04:08 10° NNE
CENTAUR R/B 3.4 15:51:28 10° WNW 15:58:02 47° N 16:00:45 35° NE
CZ-2D R/B 4.0 15:54:38 10° S 15:58:45 56° WSW 16:02:48 10° NNW
EO 1 Delta rocket 4.3 15:58:37 56° E 15:58:51 56° ENE 16:05:11 10° N
NOSS 2-3 (C) 3.7 15:56:55 10° SW 15:59:41 55° WSW 15:59:41 55° WSW
COSMOS 2455 3.5 15:55:09 10° S 15:59:48 38° SE 15:59:48 38° SE
Meteor 1-26 Rocket 4.0 15:55:50 10° SSW 16:01:14 87° WNW 16:03:54 31° NNE
YAOGAN 1 3.0 15:59:15 10° S 16:03:28 60° WSW 16:07:42 10° NNW
Cosmos 1943 Rocket 3.7 16:00:20 10° NNW 16:03:34 21° N 16:03:34 21° N
Cosmos 1709 Rocket 3.8 15:58:54 10° N 16:04:59 61° ENE 16:05:39 58° ESE
SPOT 1/Viking Rocket 4.4 16:00:08 10° S 16:05:10 49° W 16:10:14 10° NNW
Meteor 2-20 Rocket 4.5 16:01:11 10° SSW 16:07:20 77° WNW 16:12:37 13° N
Cosmos 1745 Rocket 3.8 16:03:47 10° N 16:10:01 82° ENE 16:16:10 10° SSE
Cosmos 2369 3.5 16:04:26 10° SSW 16:10:09 75° ESE 16:10:35 71° E
NOSS 2-3 (D) 4.2 16:12:12 10° WSW 16:15:00 46° W 16:15:00 46° W
SKYMED 2 3.9 16:16:13 65° WNW 16:16:13 65° WNW 16:20:26 10° SSW
NOSS 2-3 (E) 4.3 16:13:32 10° WSW 16:16:17 44° W 16:16:17 44° W
SL-16 R/B 4.2 16:12:51 10° N 16:18:04 29° NW 16:23:15 10° WSW
PSLV R/B 4.3 16:17:07 29° SSW 16:18:48 48° W 16:22:47 10° NNW
Lacrosse 4 Rocket 3.9 16:19:44 10° NW 16:20:42 12° NNW 16:20:42 12° NNW
Cosmos 2369 Rocket 4.1 16:19:48 10° NW 16:23:25 17° N 16:23:38 17° N
Lacrosse 5 rocket 2.9 16:20:41 10° WNW 16:22:36 29° WNW 16:22:36 29° WNW
COSMO-SKYMED 1 4.3 16:27:44 23° SSW 16:27:44 23° SSW 16:29:21 10° SSW
USA 215 3.1 16:27:35 69° E 16:28:30 85° NNE 16:35:06 10° WNW
Cosmos 1697 Rocket 3.9 16:24:40 10° WSW 16:29:51 37° NW 16:31:37 30° N
USA 238 DEB 3.5 16:24:13 10° SW 16:30:31 81° NW 16:31:31 66° NNE
USA 238 3.5 16:24:18 10° SW 16:30:39 82° NW 16:31:37 66° NNE
Cosmos 2278 Rocket 3.8 16:33:39 10° NNW 16:36:24 22° N 16:36:24 22° N
Cosmos 1898 Rocket 4.0 16:34:25 10° SW 16:39:30 55° NW 16:39:35 55° NW
Cosmos 2333 Rocket 4.4 16:35:50 10° S 16:36:34 14° S 16:36:34 14° S
Cosmos 967 Rocket 4.5 16:38:36 10° SW 16:44:23 74° SSW 16:44:23 74° SSW
Resurs 01 Rocket 4.0 16:55:31 16° NNW 16:55:31 16° NNW 16:56:33 10° NNW
GEOS 3 Rocket 4.2 16:53:48 56° WNW 16:53:48 56° WNW 16:58:30 10° WSW
Cosmos 1937 Rocket 4.3 16:48:21 10° SW 16:52:25 47° W 16:52:25 47° W
Meteor 1-11 Rocket 4.2 16:50:31 10° NNW 16:55:23 58° NW 16:55:23 58° NW
NOSS 3-2 (A) 4.5 17:11:21 10° WNW 17:15:59 40° NNW 17:15:59 40° NNW
SL-16 R/B 4.2 17:14:28 10° SW 17:15:59 19° SW 17:15:59 19° SW
NOSS 3-2 (C) 4.5 17:15:08 10° WNW 17:19:38 40° NNW 17:19:38 40° NNW
Cosmos 1844 Rocket 4.4 17:24:09 10° NW 17:28:50 27° WSW 17:29:33 26° WSW
USA 281 4.3 17:37:29 38° NNW 17:37:29 38° NNW 17:41:16 10° NNW
Cosmos 1980 Rocket 3.9 17:30:02 10° W 17:34:03 29° NW 17:34:03 29° NW
CENTAUR R/B 3.7 17:42:35 10° NW 17:47:51 47° NNW 17:47:51 47° NNW
